| time (UTC) | temp F | wind direction | speed MPH | gust MPH | rain 1hr in | rain 24hr in | rain mn in | humidity % | barometer mb |
| 20260506091339 | 55 | 51 | 8.0 | 13.0 | 0.00 | 0.00 | 0.00 | 64 | 1010.4 |
| 20260506090839 | 55 | 15 | 7.0 | 16.0 | 0.00 | 0.00 | 0.00 | 65 | 1010.4 |
| 20260506090339 | 56 | 21 | 7.0 | 16.0 | 0.00 | 0.00 | 0.00 | 64 | 1010.4 |
| 20260506085840 | 56 | 42 | 7.0 | 12.0 | 0.00 | 0.00 | 0.00 | 65 | 1010.4 |
| 20260506085339 | 56 | 23 | 8.0 | 12.0 | 0.00 | 0.00 | 0.00 | 64 | 1010.4 |
| 20260506084839 | 56 | 58 | 8.0 | 12.0 | 0.00 | 0.00 | 0.00 | 66 | 1010.4 |
| 20260506084340 | 56 | 34 | 8.0 | 13.0 | 0.00 | 0.00 | 0.00 | 67 | 1010.4 |
| 20260506083838 | 55 | 49 | 8.0 | 13.0 | 0.00 | 0.00 | 0.00 | 68 | 1010.4 |
| 20260506083337 | 55 | 15 | 7.0 | 12.0 | 0.00 | 0.00 | 0.00 | 68 | 1010.4 |
| 20260506083112 | 54 | 50 | 8.0 | 14.0 | 0.00 | 0.00 | 0.00 | 68 | 1010.4 |
| 20260506082337 | 54 | 17 | 8.0 | 14.0 | 0.00 | 0.00 | 0.00 | 67 | 1010.4 |
| 20260506082118 | 54 | 58 | 8.0 | 13.0 | 0.00 | 0.00 | 0.00 | 68 | 1010.4 |
| 20260506081336 | 54 | 44 | 8.0 | 13.0 | 0.00 | 0.00 | 0.00 | 69 | 1010.4 |
| 20260506080835 | 54 | 46 | 9.0 | 14.0 | 0.00 | 0.00 | 0.00 | 69 | 1010.4 |
| 20260506080336 | 54 | 38 | 9.0 | 14.0 | 0.00 | 0.00 | 0.00 | 69 | 1010.4 |
| 20260506073331 | 53 | 63 | 9.0 | 15.0 | 0.00 | 0.00 | 0.00 | 71 | 1010.4 |
| 20260506072833 | 53 | 60 | 9.0 | 14.0 | 0.00 | 0.00 | 0.00 | 71 | 1010.3 |
| 20260506072331 | 53 | 40 | 8.0 | 16.0 | 0.00 | 0.00 | 0.00 | 74 | 1010.3 |
| 20260506071831 | 53 | 56 | 8.0 | 16.0 | 0.00 | 0.00 | 0.00 | 73 | 1010.3 |
| 20260506071331 | 52 | 66 | 10.0 | 16.0 | 0.00 | 0.00 | 0.00 | 74 | 1010.3 |
| 20260506070830 | 51 | 78 | 10.0 | 16.0 | 0.00 | 0.00 | 0.00 | 75 | 1010.3 |
| 20260506070329 | 51 | 54 | 9.0 | 15.0 | 0.00 | 0.00 | 0.00 | 75 | 1010.3 |
| 20260506062331 | 48 | 67 | 8.0 | 12.0 | 0.00 | 0.00 | 0.00 | 78 | 1010.3 |
| 20260506061827 | 48 | 38 | 8.0 | 12.0 | 0.00 | 0.00 | 0.00 | 79 | 1010.3 |
| 20260506061316 | 47 | 34 | 7.0 | 13.0 | 0.00 | 0.00 | 0.00 | 79 | 1010.4 |
| 20260506060815 | 47 | 50 | 7.0 | 13.0 | 0.00 | 0.00 | 0.00 | 80 | 1010.4 |
| 20260506060309 | 46 | 51 | 7.0 | 11.0 | 0.00 | 0.00 | 0.00 | 80 | 1010.4 |
| 20260506050806 | 42 | 40 | 7.0 | 11.0 | 0.00 | 0.00 | 0.00 | 84 | 1010.4 |
| 20260506044245 | 40 | 42 | 7.0 | 11.0 | 0.00 | 0.00 | 0.00 | 86 | 1010.4 |
| 20260506043745 | 40 | 40 | 7.0 | 11.0 | 0.00 | 0.00 | 0.00 | 86 | 1010.4 |
| 20260506043245 | 39 | 42 | 7.0 | 11.0 | 0.00 | 0.00 | 0.00 | 86 | 1010.4 |
| 20260506043015 | 39 | 42 | 7.0 | 10.0 | 0.00 | 0.00 | 0.00 | 87 | 1010.4 |
| 20260506042244 | 39 | 38 | 7.0 | 10.0 | 0.00 | 0.00 | 0.00 | 87 | 1010.4 |
| 20260506042014 | 39 | 38 | 7.0 | 11.0 | 0.00 | 0.00 | 0.00 | 87 | 1010.4 |
| 20260506041246 | 39 | 39 | 7.0 | 11.0 | 0.00 | 0.00 | 0.00 | 87 | 1010.4 |
| 20260506040744 | 39 | 44 | 8.0 | 12.0 | 0.00 | 0.00 | 0.00 | 87 | 1010.4 |
| 20260506040245 | 39 | 53 | 8.0 | 12.0 | 0.00 | 0.00 | 0.00 | 87 | 1010.4 |
| 20260506040022 | 39 | 42 | 7.0 | 12.0 | 0.00 | 0.00 | 0.00 | 88 | 1010.4 |
| 20260506035244 | 38 | 40 | 7.0 | 10.0 | 0.00 | 0.00 | 0.00 | 88 | 1010.4 |
| 20260506034746 | 38 | 42 | 7.0 | 10.0 | 0.00 | 0.00 | 0.00 | 88 | 1010.4 |
| 20260506034238 | 38 | 46 | 8.0 | 10.0 | 0.00 | 0.00 | 0.00 | 88 | 1010.4 |
| 20260506033731 | 38 | 27 | 7.0 | 10.0 | 0.00 | 0.00 | 0.00 | 88 | 1010.4 |
| 20260506033226 | 39 | 40 | 7.0 | 10.0 | 0.00 | 0.00 | 0.00 | 87 | 1010.4 |
| 20260506032726 | 39 | 41 | 7.0 | 10.0 | 0.00 | 0.00 | 0.00 | 87 | 1010.5 |
| 20260506032227 | 39 | 19 | 7.0 | 10.0 | 0.00 | 0.00 | 0.00 | 87 | 1010.5 |
| 20260506031727 | 39 | 25 | 7.0 | 10.0 | 0.00 | 0.00 | 0.00 | 87 | 1010.5 |
| 20260506031226 | 39 | 12 | 7.0 | 10.0 | 0.00 | 0.00 | 0.00 | 87 | 1010.6 |
| 20260506030948 | 39 | 34 | 7.0 | 10.0 | 0.00 | 0.00 | 0.00 | 87 | 1010.6 |
| 20260506030227 | 39 | 36 | 7.0 | 11.0 | 0.00 | 0.00 | 0.00 | 87 | 1010.6 |
| 20260506025726 | 39 | 59 | 7.0 | 11.0 | 0.00 | 0.00 | 0.00 | 87 | 1010.6 |
| 20260506025226 | 39 | 32 | 8.0 | 12.0 | 0.00 | 0.00 | 0.00 | 87 | 1010.6 |
| 20260506024726 | 39 | 22 | 8.0 | 12.0 | 0.00 | 0.00 | 0.00 | 88 | 1010.6 |
| 20260506024226 | 39 | 39 | 8.0 | 11.0 | 0.00 | 0.00 | 0.00 | 88 | 1010.7 |
| 20260506023726 | 39 | 32 | 8.0 | 11.0 | 0.00 | 0.00 | 0.00 | 87 | 1010.7 |
| 20260506023226 | 39 | 46 | 8.0 | 12.0 | 0.00 | 0.00 | 0.00 | 88 | 1010.7 |
| 20260506022726 | 39 | 24 | 8.0 | 12.0 | 0.00 | 0.00 | 0.00 | 87 | 1010.7 |
| 20260506022227 | 39 | 28 | 7.0 | 12.0 | 0.00 | 0.00 | 0.00 | 87 | 1010.7 |
| 20260506021727 | 39 | 34 | 7.0 | 11.0 | 0.00 | 0.00 | 0.00 | 87 | 1010.7 |
| 20260506021227 | 40 | 34 | 8.0 | 11.0 | 0.00 | 0.00 | 0.00 | 87 | 1010.9 |
| 20260506020726 | 40 | 32 | 7.0 | 11.0 | 0.00 | 0.00 | 0.00 | 87 | 1010.9 |
| 20260506020227 | 40 | 15 | 7.0 | 11.0 | 0.00 | 0.00 | 0.00 | 87 | 1010.9 |
| 20260506015727 | 40 | 14 | 7.0 | 11.0 | 0.00 | 0.00 | 0.00 | 87 | 1010.9 |
| 20260506015227 | 40 | 29 | 7.0 | 11.0 | 0.00 | 0.00 | 0.00 | 87 | 1010.9 |
| 20260506014959 | 40 | 19 | 6.0 | 11.0 | 0.00 | 0.00 | 0.00 | 87 | 1010.9 |
| 20260506014228 | 40 | 20 | 6.0 | 11.0 | 0.00 | 0.00 | 0.00 | 87 | 1010.9 |
| 20260506013723 | 40 | 28 | 6.0 | 11.0 | 0.00 | 0.00 | 0.00 | 87 | 1010.9 |
| 20260506013224 | 40 | 355 | 6.0 | 11.0 | 0.00 | 0.00 | 0.00 | 87 | 1010.9 |
| 20260506012724 | 41 | 55 | 6.0 | 10.0 | 0.00 | 0.00 | 0.00 | 87 | 1010.9 |
| 20260506012224 | 41 | 22 | 6.0 | 11.0 | 0.00 | 0.00 | 0.00 | 87 | 1010.9 |
| 20260506011724 | 41 | 30 | 6.0 | 11.0 | 0.00 | 0.00 | 0.00 | 86 | 1010.9 |
| 20260506011227 | 41 | 21 | 6.0 | 10.0 | 0.00 | 0.00 | 0.00 | 86 | 1010.9 |
| 20260506010958 | 41 | 355 | 6.0 | 10.0 | 0.00 | 0.00 | 0.00 | 86 | 1010.9 |
| 20260506010224 | 41 | 23 | 6.0 | 10.0 | 0.00 | 0.00 | 0.00 | 86 | 1010.9 |
| 20260506005724 | 41 | 26 | 6.0 | 10.0 | 0.00 | 0.00 | 0.00 | 86 | 1010.9 |
| 20260506005224 | 41 | 36 | 6.0 | 10.0 | 0.00 | 0.00 | 0.00 | 86 | 1010.9 |
| 20260506004724 | 41 | 36 | 6.0 | 11.0 | 0.00 | 0.00 | 0.00 | 86 | 1010.9 |
| 20260506004225 | 42 | 13 | 6.0 | 11.0 | 0.00 | 0.00 | 0.00 | 85 | 1010.7 |
| 20260506003724 | 42 | 29 | 6.0 | 10.0 | 0.00 | 0.00 | 0.00 | 85 | 1010.7 |
| 20260506003223 | 42 | 22 | 7.0 | 10.0 | 0.00 | 0.00 | 0.00 | 85 | 1010.7 |
| 20260506002722 | 42 | 38 | 6.0 | 10.0 | 0.00 | 0.00 | 0.00 | 84 | 1010.5 |
| 20260506002222 | 42 | 11 | 5.0 | 10.0 | 0.00 | 0.00 | 0.00 | 84 | 1010.5 |
| 20260506001721 | 43 | 20 | 5.0 | 10.0 | 0.00 | 0.00 | 0.00 | 83 | 1010.5 |
| 20260506001223 | 43 | 22 | 6.0 | 10.0 | 0.00 | 0.00 | 0.00 | 83 | 1010.6 |
| 20260506000956 | 43 | 36 | 6.0 | 10.0 | 0.00 | 0.00 | 0.00 | 83 | 1010.6 |
| 20260506000219 | 43 | 39 | 7.0 | 10.0 | 0.00 | 0.00 | 0.00 | 82 | 1010.6 |
| 20260505235707 | 44 | 34 | 7.0 | 11.0 | 0.00 | 0.00 | 0.00 | 82 | 1010.7 |
| 20260505235207 | 44 | 26 | 7.0 | 11.0 | 0.00 | 0.00 | 0.00 | 82 | 1010.7 |
| 20260505234706 | 44 | 15 | 6.0 | 10.0 | 0.00 | 0.00 | 0.00 | 82 | 1010.7 |
| 20260505234206 | 44 | 22 | 6.0 | 10.0 | 0.00 | 0.00 | 0.00 | 82 | 1010.7 |
| 20260505233705 | 44 | 0 | 6.0 | 11.0 | 0.00 | 0.00 | 0.00 | 82 | 1010.7 |
| 20260505233206 | 44 | 351 | 6.0 | 11.0 | 0.00 | 0.00 | 0.00 | 82 | 1010.7 |
| 20260505232702 | 44 | 13 | 5.0 | 9.0 | 0.00 | 0.00 | 0.00 | 81 | 1010.7 |
| 20260505232203 | 45 | 17 | 5.0 | 8.0 | 0.00 | 0.00 | 0.00 | 81 | 1010.7 |
| 20260505231703 | 45 | 0 | 5.0 | 8.0 | 0.00 | 0.00 | 0.00 | 81 | 1010.7 |
| 20260505231203 | 45 | 24 | 5.0 | 9.0 | 0.00 | 0.00 | 0.00 | 81 | 1010.7 |
| 20260505230704 | 45 | 30 | 5.0 | 9.0 | 0.00 | 0.00 | 0.00 | 81 | 1010.7 |
| 20260505230201 | 45 | 38 | 5.0 | 8.0 | 0.00 | 0.00 | 0.00 | 81 | 1010.7 |
| 20260505225701 | 45 | 15 | 5.0 | 9.0 | 0.00 | 0.00 | 0.00 | 81 | 1010.7 |
| 20260505225201 | 45 | 21 | 6.0 | 9.0 | 0.00 | 0.00 | 0.00 | 81 | 1010.7 |
| 20260505224701 | 45 | 32 | 5.0 | 9.0 | 0.00 | 0.00 | 0.00 | 81 | 1010.7 |
| 20260505224202 | 45 | 26 | 5.0 | 8.0 | 0.00 | 0.00 | 0.00 | 81 | 1010.9 |
| 20260505223702 | 45 | 11 | 5.0 | 9.0 | 0.00 | 0.00 | 0.00 | 80 | 1010.9 |
| 20260505223201 | 45 | 31 | 6.0 | 9.0 | 0.00 | 0.00 | 0.00 | 80 | 1010.9 |
| 20260505222940 | 45 | 28 | 5.0 | 9.0 | 0.00 | 0.00 | 0.00 | 80 | 1010.8 |
| 20260505222202 | 45 | 24 | 5.0 | 9.0 | 0.00 | 0.00 | 0.00 | 80 | 1010.8 |
| 20260505221701 | 46 | 31 | 6.0 | 9.0 | 0.00 | 0.00 | 0.00 | 80 | 1010.8 |
| 20260505221201 | 46 | 339 | 6.0 | 9.0 | 0.00 | 0.00 | 0.00 | 80 | 1010.9 |
| 20260505220702 | 46 | 17 | 6.0 | 10.0 | 0.00 | 0.00 | 0.00 | 80 | 1010.9 |
| 20260505220201 | 46 | 20 | 7.0 | 10.0 | 0.00 | 0.00 | 0.00 | 81 | 1010.9 |
| 20260505215710 | 46 | 19 | 7.0 | 10.0 | 0.00 | 0.00 | 0.00 | 81 | 1010.9 |
| 20260505214708 | 46 | 355 | 8.0 | 12.0 | 0.00 | 0.00 | 0.00 | 81 | 1010.9 |
| 20260505214206 | 47 | 348 | 8.0 | 12.0 | 0.00 | 0.00 | 0.00 | 81 | 1010.9 |
| 20260505213638 | 47 | 355 | 8.0 | 11.0 | 0.00 | 0.00 | 0.00 | 81 | 1010.9 |
| 20260505213138 | 47 | 0 | 7.0 | 11.0 | 0.00 | 0.00 | 0.00 | 81 | 1010.9 |
| 20260505212639 | 47 | 0 | 8.0 | 11.0 | 0.00 | 0.00 | 0.00 | 81 | 1011.0 |
| 20260505212151 | 47 | 347 | 8.0 | 12.0 | 0.00 | 0.00 | 0.00 | 81 | 1011.0 |
| 20260505211647 | 47 | 355 | 8.0 | 12.0 | 0.00 | 0.00 | 0.00 | 81 | 1011.0 |
| 20260505211147 | 48 | 355 | 8.0 | 12.0 | 0.00 | 0.00 | 0.00 | 80 | 1011.0 |
| 20260505210920 | 48 | 5 | 8.0 | 12.0 | 0.00 | 0.00 | 0.00 | 80 | 1011.0 |
| 20260505210140 | 48 | 355 | 8.0 | 11.0 | 0.00 | 0.00 | 0.00 | 79 | 1011.0 |
| 20260505205639 | 48 | 355 | 8.0 | 12.0 | 0.00 | 0.00 | 0.00 | 79 | 1011.1 |
| 20260505205139 | 48 | 5 | 8.0 | 13.0 | 0.00 | 0.00 | 0.00 | 79 | 1011.1 |
| 20260505204635 | 49 | 9 | 8.0 | 13.0 | 0.00 | 0.00 | 0.00 | 78 | 1011.1 |
| 20260505204145 | 49 | 344 | 9.0 | 13.0 | 0.00 | 0.00 | 0.00 | 78 | 1011.0 |
| 20260505203632 | 49 | 355 | 10.0 | 14.0 | 0.00 | 0.00 | 0.00 | 78 | 1011.0 |
| 20260505203133 | 49 | 350 | 9.0 | 14.0 | 0.00 | 0.00 | 0.00 | 78 | 1011.0 |
| 20260505202630 | 49 | 0 | 10.0 | 15.0 | 0.00 | 0.00 | 0.00 | 77 | 1011.0 |
| 20260505202129 | 50 | 0 | 10.0 | 15.0 | 0.00 | 0.00 | 0.00 | 77 | 1011.0 |
| 20260505201631 | 50 | 0 | 10.0 | 14.0 | 0.00 | 0.00 | 0.00 | 77 | 1011.0 |
| 20260505201129 | 50 | 18 | 10.0 | 15.0 | 0.00 | 0.00 | 0.00 | 76 | 1010.9 |
| 20260505200630 | 50 | 339 | 11.0 | 15.0 | 0.00 | 0.00 | 0.00 | 76 | 1010.9 |
| 20260505200131 | 50 | 12 | 10.0 | 15.0 | 0.00 | 0.00 | 0.00 | 76 | 1010.9 |
| 20260505195857 | 51 | 11 | 10.0 | 14.0 | 0.00 | 0.00 | 0.00 | 75 | 1010.9 |
| 20260505195130 | 51 | 5 | 10.0 | 15.0 | 0.00 | 0.00 | 0.00 | 74 | 1010.9 |
| 20260505194630 | 51 | 10 | 11.0 | 15.0 | 0.00 | 0.00 | 0.00 | 74 | 1010.9 |
| 20260505194129 | 51 | 350 | 11.0 | 15.0 | 0.00 | 0.00 | 0.00 | 73 | 1010.9 |
| 20260505193630 | 51 | 5 | 10.0 | 15.0 | 0.00 | 0.00 | 0.00 | 73 | 1010.9 |
| 20260505193130 | 51 | 0 | 10.0 | 14.0 | 0.00 | 0.00 | 0.00 | 74 | 1010.9 |
| 20260505192630 | 51 | 0 | 10.0 | 14.0 | 0.00 | 0.00 | 0.00 | 74 | 1010.6 |
| 20260505192132 | 51 | 355 | 10.0 | 15.0 | 0.00 | 0.00 | 0.00 | 74 | 1010.6 |
| 20260505191632 | 51 | 355 | 10.0 | 15.0 | 0.00 | 0.00 | 0.00 | 73 | 1010.6 |
| 20260505191131 | 51 | 0 | 9.0 | 13.0 | 0.00 | 0.00 | 0.00 | 73 | 1010.5 |
| 20260505190631 | 51 | 349 | 10.0 | 16.0 | 0.00 | 0.00 | 0.00 | 73 | 1010.5 |
| 20260505190132 | 51 | 355 | 10.0 | 16.0 | 0.00 | 0.00 | 0.00 | 73 | 1010.5 |
| 20260505185633 | 51 | 351 | 11.0 | 16.0 | 0.00 | 0.00 | 0.00 | 74 | 1010.4 |
| 20260505185132 | 52 | 355 | 11.0 | 16.0 | 0.00 | 0.00 | 0.00 | 73 | 1010.4 |
| 20260505184631 | 52 | 18 | 9.0 | 13.0 | 0.00 | 0.00 | 0.00 | 73 | 1010.4 |
| 20260505184131 | 52 | 346 | 9.0 | 16.0 | 0.00 | 0.00 | 0.00 | 72 | 1010.4 |
| 20260505183631 | 52 | 350 | 10.0 | 16.0 | 0.00 | 0.00 | 0.00 | 72 | 1010.4 |
| 20260505183133 | 53 | 342 | 10.0 | 16.0 | 0.00 | 0.00 | 0.00 | 72 | 1010.4 |
| 20260505182631 | 53 | 347 | 10.0 | 16.0 | 0.00 | 0.00 | 0.00 | 71 | 1010.4 |
| 20260505182131 | 53 | 337 | 10.0 | 15.0 | 0.00 | 0.00 | 0.00 | 70 | 1010.4 |
| 20260505181631 | 54 | 344 | 11.0 | 17.0 | 0.00 | 0.00 | 0.00 | 70 | 1010.4 |
| 20260505181400 | 54 | 339 | 10.0 | 17.0 | 0.00 | 0.00 | 0.00 | 70 | 1010.4 |
| 20260505180631 | 54 | 350 | 10.0 | 16.0 | 0.00 | 0.00 | 0.00 | 70 | 1010.4 |
| 20260505180132 | 54 | 331 | 11.0 | 16.0 | 0.00 | 0.00 | 0.00 | 69 | 1010.4 |
| 20260505175632 | 55 | 355 | 10.0 | 15.0 | 0.00 | 0.00 | 0.00 | 69 | 1010.4 |
| 20260505175132 | 55 | 334 | 10.0 | 15.0 | 0.00 | 0.00 | 0.00 | 70 | 1010.4 |
| 20260505174631 | 55 | 346 | 11.0 | 19.0 | 0.00 | 0.00 | 0.00 | 71 | 1010.4 |
| 20260505174131 | 55 | 329 | 11.0 | 19.0 | 0.00 | 0.00 | 0.00 | 71 | 1010.4 |
| 20260505173634 | 55 | 342 | 12.0 | 19.0 | 0.00 | 0.00 | 0.00 | 70 | 1010.4 |
| 20260505173131 | 55 | 355 | 10.0 | 19.0 | 0.00 | 0.00 | 0.00 | 70 | 1010.4 |
| 20260505172632 | 56 | 350 | 11.0 | 17.0 | 0.00 | 0.00 | 0.00 | 69 | 1010.4 |
| 20260505172131 | 56 | 341 | 12.0 | 21.0 | 0.00 | 0.00 | 0.00 | 69 | 1010.4 |
| 20260505171631 | 56 | 284 | 12.0 | 21.0 | 0.00 | 0.00 | 0.00 | 68 | 1010.4 |
| 20260505171131 | 56 | 336 | 11.0 | 18.0 | 0.00 | 0.00 | 0.00 | 69 | 1010.4 |
| 20260505170632 | 56 | 299 | 11.0 | 17.0 | 0.00 | 0.00 | 0.00 | 69 | 1010.4 |
| 20260505170129 | 56 | 355 | 11.0 | 17.0 | 0.00 | 0.00 | 0.00 | 69 | 1010.4 |
| 20260505165630 | 56 | 331 | 11.0 | 19.0 | 0.00 | 0.00 | 0.00 | 69 | 1010.5 |
| 20260505165130 | 56 | 332 | 13.0 | 21.0 | 0.00 | 0.00 | 0.00 | 70 | 1010.5 |
| 20260505164630 | 56 | 349 | 12.0 | 21.0 | 0.00 | 0.00 | 0.00 | 68 | 1010.5 |
| 20260505163629 | 57 | 336 | 11.0 | 19.0 | 0.00 | 0.00 | 0.00 | 68 | 1010.4 |
| 20260505163129 | 57 | 329 | 12.0 | 19.0 | 0.00 | 0.00 | 0.00 | 68 | 1010.4 |
| 20260505162852 | 57 | 306 | 11.0 | 18.0 | 0.00 | 0.00 | 0.00 | 67 | 1010.4 |
| 20260505162129 | 57 | 326 | 10.0 | 18.0 | 0.00 | 0.00 | 0.00 | 67 | 1010.4 |
| 20260505161629 | 57 | 339 | 10.0 | 18.0 | 0.00 | 0.00 | 0.00 | 67 | 1010.4 |
| 20260505161129 | 57 | 331 | 11.0 | 17.0 | 0.00 | 0.00 | 0.00 | 67 | 1010.5 |
| 20260505160630 | 57 | 339 | 11.0 | 18.0 | 0.00 | 0.00 | 0.00 | 67 | 1010.5 |
| 20260505160129 | 57 | 342 | 11.0 | 19.0 | 0.00 | 0.00 | 0.00 | 66 | 1010.5 |
| 20260505153130 | 58 | 339 | 12.0 | 20.0 | 0.00 | 0.00 | 0.00 | 65 | 1010.7 |
| 20260505152628 | 58 | 328 | 11.0 | 20.0 | 0.00 | 0.00 | 0.00 | 66 | 1010.9 |
| 20260505152129 | 58 | 315 | 11.0 | 19.0 | 0.00 | 0.00 | 0.00 | 65 | 1010.9 |
| 20260505151628 | 58 | 16 | 11.0 | 20.0 | 0.00 | 0.00 | 0.00 | 65 | 1010.9 |
| 20260505151129 | 58 | 323 | 11.0 | 20.0 | 0.00 | 0.00 | 0.00 | 66 | 1010.9 |
| 20260505150629 | 58 | 313 | 11.0 | 19.0 | 0.00 | 0.00 | 0.00 | 67 | 1010.9 |
| 20260505150129 | 58 | 325 | 11.0 | 18.0 | 0.00 | 0.00 | 0.00 | 67 | 1010.9 |
| 20260505140115 | 58 | 323 | 10.0 | 17.0 | 0.00 | 0.00 | 0.00 | 70 | 1010.9 |
| 20260505124603 | 55 | 302 | 12.0 | 18.0 | 0.00 | 0.00 | 0.00 | 76 | 1011.3 |
| 20260505124102 | 55 | 306 | 11.0 | 18.0 | 0.00 | 0.00 | 0.00 | 75 | 1011.4 |
| 20260505123603 | 56 | 290 | 11.0 | 18.0 | 0.00 | 0.00 | 0.00 | 74 | 1011.4 |
| 20260505123102 | 56 | 302 | 12.0 | 19.0 | 0.00 | 0.00 | 0.00 | 74 | 1011.4 |
| 20260505122602 | 55 | 279 | 13.0 | 19.0 | 0.00 | 0.00 | 0.00 | 77 | 1011.4 |
| 20260505122354 | 55 | 281 | 11.0 | 19.0 | 0.00 | 0.00 | 0.00 | 75 | 1011.4 |
| 20260505121602 | 56 | 270 | 10.0 | 16.0 | 0.00 | 0.00 | 0.00 | 76 | 1011.4 |
| 20260505121102 | 56 | 288 | 10.0 | 18.0 | 0.00 | 0.00 | 0.00 | 73 | 1011.4 |
| 20260505120836 | 56 | 286 | 11.0 | 18.0 | 0.00 | 0.00 | 0.00 | 75 | 1011.4 |
| 20260505115602 | 56 | 281 | 11.0 | 16.0 | 0.00 | 0.00 | 0.00 | 74 | 1011.4 |
| 20260505115053 | 56 | 286 | 10.0 | 15.0 | 0.00 | 0.00 | 0.00 | 74 | 1011.4 |
| 20260505114549 | 56 | 298 | 9.0 | 15.0 | 0.00 | 0.00 | 0.00 | 75 | 1011.4 |
| 20260505114050 | 55 | 282 | 9.0 | 13.0 | 0.00 | 0.00 | 0.00 | 75 | 1011.4 |
| 20260505113046 | 55 | 277 | 9.0 | 15.0 | 0.00 | 0.00 | 0.00 | 72 | 1011.4 |
| 20260505112547 | 57 | 332 | 9.0 | 15.0 | 0.00 | 0.00 | 0.00 | 69 | 1011.5 |
| 20260505112046 | 57 | 298 | 8.0 | 15.0 | 0.00 | 0.00 | 0.00 | 71 | 1011.5 |
| 20260505111545 | 57 | 313 | 7.0 | 13.0 | 0.00 | 0.00 | 0.00 | 69 | 1011.5 |
| 20260505111323 | 56 | 293 | 8.0 | 13.0 | 0.00 | 0.00 | 0.00 | 68 | 1011.5 |
| 20260505110545 | 56 | 309 | 7.0 | 14.0 | 0.00 | 0.00 | 0.00 | 71 | 1011.5 |
| 20260505101550 | 55 | 330 | 3.0 | 6.0 | 0.00 | 0.00 | 0.00 | 71 | 1011.9 |
| 20260505101312 | 54 | 9 | 4.0 | 7.0 | 0.00 | 0.00 | 0.00 | 68 | 1012.0 |
| 20260505100546 | 54 | 5 | 4.0 | 9.0 | 0.00 | 0.00 | 0.00 | 69 | 1012.0 |
| 20260505100343 | 53 | 18 | 5.0 | 9.0 | 0.00 | 0.00 | 0.00 | 68 | 1012.0 |
| 20260505095041 | 54 | 329 | 5.0 | 10.0 | 0.00 | 0.00 | 0.00 | 71 | 1012.0 |
| 20260505094535 | 55 | 0 | 4.0 | 10.0 | 0.00 | 0.00 | 0.00 | 70 | 1012.0 |
| 20260505094048 | 55 | 355 | 4.0 | 9.0 | 0.00 | 0.00 | 0.00 | 70 | 1012.0 |
| 20260505093538 | 55 | 355 | 5.0 | 10.0 | 0.00 | 0.00 | 0.00 | 71 | 1012.0 |
| 20260505093036 | 54 | 346 | 6.0 | 11.0 | 0.00 | 0.00 | 0.00 | 72 | 1012.0 |
| 20260505092531 | 54 | 350 | 6.0 | 11.0 | 0.00 | 0.00 | 0.00 | 75 | 1012.0 |
| 20260505092258 | 53 | 331 | 5.0 | 10.0 | 0.00 | 0.00 | 0.00 | 77 | 1012.0 |